Weather History for KBFI - September, 2013

Change the Weather History Date:

Sunday, September 22, 2013

  Actual Average Record
Temperature  
Mean Temperature 60 °F -  
Max Temperature 63 °F 69 °F 92 °F (1990)
Min Temperature 57 °F 50 °F 37 °F (1955)
Degree Days  
Heating Degree Days 5    
Growing Degree Days 10 (Base 50)    
Moisture  
Dew Point 52 °F    
Average Humidity 76    
Maximum Humidity 84    
Minimum Humidity 65    
Precipitation  
Precipitation 0.37 in - - ()
Sea Level Pressure  
Sea Level Pressure 29.67 in    
Wind  
Wind Speed 10 mph (SSE)    
Max Wind Speed 17 mph    
Max Gust Speed 28 mph    
Visibility 10 miles    
Events Rain    
Averages and records for this station are not official NWS values.
T = Trace of Precipitation, MM = Missing Value Source: NWS Daily Summary

Daily Weather History Graph

Daily Weather History Graph

Search for Another Location

Airport or City:

Trip Planner

Search our weather history database for the weather conditions in past years. The results will help you decide how hot, cold, wet, or windy it might be!

Date:

Astronomy

Sep. 22, 2013 Rise Set
Actual Time 6:56 AM PDT 7:06 PM PDT
Civil Twilight 6:25 AM PDT 7:36 PM PDT
Nautical Twilight 5:49 AM PDT 8:12 PM PDT
Astronomical Twilight 5:12 AM PDT 8:50 PM PDT
Moon 8:42 PM PDT (9/22) 10:39 AM PDT (9/22)
Length of Visible Light 13h 11m
Length of Day
12h 09m
Waning Gibbous, 88% of the Moon is Illuminated
Sep 22
Waning Gibbous
Sep 26
Last Quarter
Oct 4
New
Oct 11
First Quarter
Oct 18
Full

Hourly Weather History & Observations

Time (PDT) Temp. Dew Point Humidity Pressure Visibility Wind Dir Wind Speed Gust Speed Precip Events Conditions
12:53 AM 62.1 °F 53.1 °F 72% 29.71 in 10.0 mi Variable 6.9 mph - N/A   Overcast
1:53 AM 60.1 °F 54.0 °F 80% 29.71 in 10.0 mi SSE 6.9 mph - N/A   Overcast
2:53 AM 60.1 °F 54.0 °F 80% 29.70 in 10.0 mi SSE 9.2 mph - 0.00 in   Overcast
3:53 AM 60.1 °F 52.0 °F 75% 29.70 in 10.0 mi SSE 8.1 mph - N/A   Overcast
4:53 AM 59.0 °F 53.1 °F 81% 29.69 in 10.0 mi South 11.5 mph - 0.00 in Rain Light Rain
5:53 AM 57.9 °F 51.1 °F 78% 29.69 in 10.0 mi South 6.9 mph - 0.01 in   Overcast
6:53 AM 57.9 °F 52.0 °F 81% 29.69 in 10.0 mi SSE 10.4 mph - N/A   Mostly Cloudy
7:53 AM 57.9 °F 52.0 °F 81% 29.69 in 10.0 mi SSE 10.4 mph - 0.00 in   Overcast
8:53 AM 57.9 °F 51.1 °F 78% 29.67 in 10.0 mi SSE 10.4 mph - 0.01 in Rain Light Rain
9:53 AM 59.0 °F 52.0 °F 78% 29.64 in 10.0 mi SE 15.0 mph - 0.00 in   Overcast
10:53 AM 62.1 °F 50.0 °F 65% 29.61 in 10.0 mi SSE 15.0 mph - 0.00 in Rain Light Rain
11:53 AM 60.1 °F 48.9 °F 67% 29.59 in 9.0 mi South 10.4 mph - 0.03 in Rain Rain
12:53 PM 57.9 °F 52.0 °F 81% 29.59 in 4.0 mi SE 13.8 mph - 0.12 in Rain Rain
1:53 PM 57.9 °F 53.1 °F 84% 29.59 in 5.0 mi SE 17.3 mph 24.2 mph 0.18 in Rain Light Rain
2:53 PM 61.0 °F 53.1 °F 75% 29.60 in 10.0 mi South 17.3 mph 27.6 mph 0.01 in   Mostly Cloudy
3:53 PM 63.0 °F 54.0 °F 72% 29.61 in 10.0 mi South 12.7 mph 21.9 mph 0.00 in   Scattered Clouds
4:53 PM 62.1 °F 53.1 °F 72% 29.62 in 10.0 mi South 8.1 mph 16.1 mph 0.01 in Rain Light Rain
5:53 PM 62.1 °F 53.1 °F 72% 29.64 in 10.0 mi South 9.2 mph - 0.00 in   Mostly Cloudy
6:53 PM 60.1 °F 52.0 °F 75% 29.65 in 10.0 mi South 8.1 mph - N/A   Scattered Clouds
7:53 PM 59.0 °F 50.0 °F 72% 29.68 in 10.0 mi South 12.7 mph 19.6 mph N/A   Scattered Clouds
8:53 PM 59.0 °F 51.1 °F 75% 29.70 in 10.0 mi SSE 10.4 mph - N/A   Clear
9:53 PM 59.0 °F 51.1 °F 75% 29.72 in 10.0 mi SSE 9.2 mph - N/A   Scattered Clouds
10:53 PM 60.1 °F 52.0 °F 75% 29.75 in 10.0 mi South 10.4 mph - N/A   Mostly Cloudy
11:53 PM 59.0 °F 51.1 °F 75% 29.76 in 10.0 mi South 9.2 mph - 0.00 in   Scattered Clouds